Photometre #525[NE_1.6] FORTH_RSLab AOT

File : 20220924_525.hum

24/09/2022,04:52:16,TEMP=20.9,BA=5.40,STAT.A=38.5,ExtBa=12.77
24/09/2022,04:55:21,TEMP=21.2,BA=5.40,STAT.D=38.0,ExtBa=12.65
24/09/2022,04:57:15,TEMP=21.5,BA=5.40,STAT.A=38.0,ExtBa=12.60
24/09/2022,04:59:22,TEMP=21.5,BA=5.40,STAT.A=37.5,ExtBa=12.60
24/09/2022,05:03:25,TEMP=21.5,BA=5.28,STAT.A=38.0,ExtBa=12.64
24/09/2022,05:08:41,TEMP=21.7,BA=5.28,STAT.A=38.5,ExtBa=12.66
24/09/2022,05:15:09,TEMP=22.0,BA=5.32,STAT.A=38.5,ExtBa=12.67
24/09/2022,05:20:21,TEMP=22.3,BA=5.44,STAT.D=38.5,ExtBa=12.66
24/09/2022,05:23:18,TEMP=22.5,BA=5.44,STAT.B=38.0,ExtBa=12.62
24/09/2022,05:32:49,TEMP=22.8,BA=5.36,STAT.A=38.0,ExtBa=12.59
24/09/2022,05:34:51,TEMP=23.0,BA=5.36,STAT.A=38.0,ExtBa=12.60
24/09/2022,05:36:54,TEMP=23.2,BA=5.36,STAT.A=37.5,ExtBa=12.60
24/09/2022,05:40:21,TEMP=23.1,BA=5.48,STAT.D=38.0,ExtBa=12.63
24/09/2022,05:42:15,TEMP=23.3,BA=5.48,STAT.A=37.5,ExtBa=12.60
24/09/2022,05:45:21,TEMP=23.2,BA=5.48,STAT.D=38.0,ExtBa=12.66
24/09/2022,05:48:25,TEMP=23.4,BA=5.48,STAT.C=38.0,ExtBa=12.68
24/09/2022,06:03:31,TEMP=23.6,BA=5.36,STAT.A=38.0,ExtBa=12.60
24/09/2022,06:05:33,TEMP=23.6,BA=5.36,STAT.A=38.0,ExtBa=12.61
24/09/2022,06:10:21,TEMP=23.0,BA=5.52,STAT.D=39.0,ExtBa=12.70
24/09/2022,06:14:49,TEMP=23.2,BA=5.52,STAT.A=39.0,ExtBa=12.72
24/09/2022,06:20:21,TEMP=23.5,BA=5.52,STAT.D=38.5,ExtBa=12.76
24/09/2022,06:25:21,TEMP=24.0,BA=5.52,STAT.D=38.5,ExtBa=12.70
24/09/2022,06:27:25,TEMP=24.3,BA=5.52,STAT.A=38.0,ExtBa=12.62
24/09/2022,06:30:21,TEMP=24.2,BA=5.52,STAT.D=38.0,ExtBa=12.64
24/09/2022,06:35:22,TEMP=24.1,BA=5.52,STAT.D=38.5,ExtBa=12.66
24/09/2022,06:40:22,TEMP=24.2,BA=5.48,STAT.D=38.5,ExtBa=12.66
24/09/2022,06:43:11,TEMP=24.1,BA=5.48,STAT.B=38.5,ExtBa=12.62
24/09/2022,06:55:22,TEMP=23.6,BA=5.36,STAT.D=39.0,ExtBa=12.64
24/09/2022,06:57:15,TEMP=24.1,BA=5.36,STAT.D=38.0,ExtBa=12.60
24/09/2022,07:00:22,TEMP=24.2,BA=5.52,STAT.D=38.0,ExtBa=12.65
24/09/2022,07:05:22,TEMP=24.4,BA=5.52,STAT.D=38.5,ExtBa=12.68
24/09/2022,07:10:22,TEMP=24.7,BA=5.52,STAT.D=38.5,ExtBa=12.88
24/09/2022,07:12:17,TEMP=25.2,BA=5.52,STAT.F,ExtBa=12.71
24/09/2022,07:27:03,TEMP=25.2,BA=5.40,STAT.D=38.5,ExtBa=13.10
24/09/2022,07:30:22,TEMP=25.5,BA=5.52,STAT.D=38.0,ExtBa=13.37
24/09/2022,07:35:22,TEMP=25.7,BA=5.52,STAT.D=38.5,ExtBa=13.53
24/09/2022,07:40:22,TEMP=25.9,BA=5.52,STAT.D=38.5,ExtBa=13.27
24/09/2022,07:42:15,TEMP=26.1,BA=5.52,STAT.D=38.0,ExtBa=13.14
24/09/2022,07:45:22,TEMP=25.8,BA=5.52,STAT.D=38.0,ExtBa=13.36
24/09/2022,07:50:22,TEMP=25.4,BA=5.52,STAT.D=39.0,ExtBa=13.25
24/09/2022,07:55:22,TEMP=25.2,BA=5.52,STAT.D=39.0,ExtBa=13.53
24/09/2022,07:57:15,TEMP=25.6,BA=5.52,STAT.D=38.5,ExtBa=13.51
24/09/2022,08:00:22,TEMP=25.5,BA=5.52,STAT.D=38.5,ExtBa=13.55
24/09/2022,08:05:22,TEMP=25.5,BA=5.52,STAT.D=38.5,ExtBa=13.56
24/09/2022,08:10:22,TEMP=25.7,BA=5.52,STAT.D=38.5,ExtBa=13.57
24/09/2022,08:12:17,TEMP=26.2,BA=5.52,STAT.F,ExtBa=13.56
24/09/2022,08:28:00,TEMP=26.0,BA=5.40,STAT.D=38.5,ExtBa=13.12
24/09/2022,08:30:22,TEMP=26.0,BA=5.52,STAT.D=38.0,ExtBa=13.40
24/09/2022,08:35:22,TEMP=25.8,BA=5.52,STAT.D=39.0,ExtBa=13.61
24/09/2022,08:40:22,TEMP=25.7,BA=5.52,STAT.D=39.0,ExtBa=13.54
24/09/2022,08:42:14,TEMP=26.1,BA=5.52,STAT.D=38.0,ExtBa=13.34
24/09/2022,08:45:22,TEMP=25.9,BA=5.52,STAT.D=38.5,ExtBa=13.62
24/09/2022,08:50:22,TEMP=26.0,BA=5.52,STAT.D=38.5,ExtBa=13.64
24/09/2022,08:55:22,TEMP=26.1,BA=5.52,STAT.D=38.5,ExtBa=13.66
24/09/2022,08:57:14,TEMP=26.5,BA=5.52,STAT.D=38.0,ExtBa=13.38
24/09/2022,09:00:22,TEMP=26.4,BA=5.52,STAT.D=38.0,ExtBa=13.61
24/09/2022,09:05:23,TEMP=26.2,BA=5.52,STAT.D=38.5,ExtBa=13.66
24/09/2022,09:10:22,TEMP=26.3,BA=5.52,STAT.D=38.5,ExtBa=13.65
24/09/2022,09:12:16,TEMP=26.6,BA=5.52,STAT.F,ExtBa=13.62
24/09/2022,09:20:23,TEMP=26.4,BA=5.52,STAT.D=38.5,ExtBa=13.49
24/09/2022,09:25:23,TEMP=26.2,BA=5.52,STAT.D=39.0,ExtBa=13.67
24/09/2022,09:27:15,TEMP=26.5,BA=5.52,STAT.D=38.5,ExtBa=13.65
24/09/2022,09:30:22,TEMP=26.5,BA=5.52,STAT.D=38.5,ExtBa=13.68
24/09/2022,09:35:23,TEMP=26.2,BA=5.52,STAT.D=39.0,ExtBa=13.68
24/09/2022,09:40:23,TEMP=26.3,BA=5.52,STAT.D=39.0,ExtBa=13.70
24/09/2022,09:42:15,TEMP=26.7,BA=5.52,STAT.D=38.0,ExtBa=13.67
24/09/2022,09:45:23,TEMP=26.8,BA=5.52,STAT.D=38.0,ExtBa=13.68
24/09/2022,09:50:23,TEMP=26.9,BA=5.52,STAT.D=38.5,ExtBa=13.71
24/09/2022,09:55:23,TEMP=27.1,BA=5.52,STAT.D=38.5,ExtBa=13.70
24/09/2022,09:57:15,TEMP=27.5,BA=5.52,STAT.D=38.0,ExtBa=13.69
24/09/2022,10:00:23,TEMP=27.4,BA=5.52,STAT.D=38.0,ExtBa=13.71
24/09/2022,10:05:23,TEMP=27.3,BA=5.52,STAT.D=38.5,ExtBa=13.70
24/09/2022,10:10:23,TEMP=27.2,BA=5.52,STAT.D=38.5,ExtBa=13.76
24/09/2022,10:12:16,TEMP=27.5,BA=5.52,STAT.F,ExtBa=13.72
24/09/2022,10:20:23,TEMP=27.1,BA=5.52,STAT.D=38.5,ExtBa=13.76
24/09/2022,10:25:23,TEMP=27.1,BA=5.52,STAT.D=38.5,ExtBa=13.80
24/09/2022,10:27:15,TEMP=27.4,BA=5.52,STAT.D=38.0,ExtBa=13.78
24/09/2022,10:30:23,TEMP=27.1,BA=5.52,STAT.D=38.5,ExtBa=13.80
24/09/2022,10:35:23,TEMP=27.0,BA=5.52,STAT.D=39.0,ExtBa=13.81
24/09/2022,10:40:23,TEMP=27.0,BA=5.52,STAT.D=38.5,ExtBa=13.87
24/09/2022,10:42:16,TEMP=27.2,BA=5.52,STAT.D=38.0,ExtBa=13.84
24/09/2022,10:45:21,TEMP=27.1,BA=5.52,STAT.D=38.5,ExtBa=13.85
24/09/2022,10:50:23,TEMP=27.0,BA=5.52,STAT.D=38.5,ExtBa=13.88
24/09/2022,10:55:23,TEMP=27.0,BA=5.52,STAT.D=38.5,ExtBa=13.91
24/09/2022,10:57:17,TEMP=27.3,BA=5.52,STAT.D=38.0,ExtBa=13.89
24/09/2022,11:00:23,TEMP=27.1,BA=5.52,STAT.D=38.0,ExtBa=13.94
24/09/2022,11:05:22,TEMP=26.7,BA=5.52,STAT.D=39.0,ExtBa=13.92
24/09/2022,11:10:23,TEMP=26.7,BA=5.52,STAT.D=38.5,ExtBa=13.98
24/09/2022,11:12:16,TEMP=27.1,BA=5.52,STAT.F,ExtBa=13.86
24/09/2022,11:20:22,TEMP=26.9,BA=5.48,STAT.D=38.5,ExtBa=13.95
24/09/2022,11:25:22,TEMP=26.9,BA=5.48,STAT.D=38.5,ExtBa=13.96
24/09/2022,11:27:15,TEMP=27.3,BA=5.48,STAT.D=38.0,ExtBa=13.93
24/09/2022,11:30:22,TEMP=27.3,BA=5.48,STAT.D=38.0,ExtBa=13.95
24/09/2022,11:35:22,TEMP=27.2,BA=5.48,STAT.D=38.5,ExtBa=13.94
24/09/2022,11:40:22,TEMP=27.2,BA=5.48,STAT.D=38.5,ExtBa=14.02
24/09/2022,11:42:14,TEMP=27.4,BA=5.48,STAT.D=38.0,ExtBa=14.00
24/09/2022,11:45:22,TEMP=27.2,BA=5.48,STAT.D=38.0,ExtBa=14.03
24/09/2022,11:50:22,TEMP=26.9,BA=5.48,STAT.D=38.5,ExtBa=13.96
24/09/2022,11:55:22,TEMP=27.0,BA=5.48,STAT.D=38.5,ExtBa=13.95
24/09/2022,11:57:14,TEMP=27.4,BA=5.48,STAT.D=38.0,ExtBa=13.98
24/09/2022,12:00:22,TEMP=27.1,BA=5.48,STAT.D=38.0,ExtBa=14.01
24/09/2022,12:05:22,TEMP=26.6,BA=5.48,STAT.D=38.5,ExtBa=14.01
24/09/2022,12:10:22,TEMP=26.5,BA=5.48,STAT.D=39.0,ExtBa=13.95
24/09/2022,12:12:16,TEMP=27.0,BA=5.48,STAT.F,ExtBa=13.83
24/09/2022,12:26:46,TEMP=26.9,BA=5.40,STAT.D=38.5,ExtBa=13.75
24/09/2022,12:30:22,TEMP=26.7,BA=5.44,STAT.D=38.5,ExtBa=13.88
24/09/2022,12:35:22,TEMP=26.5,BA=5.44,STAT.D=39.0,ExtBa=13.87
24/09/2022,12:40:22,TEMP=26.5,BA=5.48,STAT.D=38.5,ExtBa=13.87
24/09/2022,12:42:14,TEMP=26.8,BA=5.48,STAT.D=38.0,ExtBa=13.84
24/09/2022,12:45:22,TEMP=26.6,BA=5.48,STAT.D=38.0,ExtBa=13.85
24/09/2022,12:50:22,TEMP=26.2,BA=5.44,STAT.D=38.5,ExtBa=13.87
24/09/2022,12:55:22,TEMP=26.1,BA=5.44,STAT.D=39.0,ExtBa=13.85
24/09/2022,12:57:14,TEMP=26.5,BA=5.44,STAT.D=38.0,ExtBa=13.82
24/09/2022,13:00:22,TEMP=26.4,BA=5.44,STAT.D=38.0,ExtBa=13.82
24/09/2022,13:05:22,TEMP=26.1,BA=5.44,STAT.D=38.5,ExtBa=13.82
24/09/2022,13:10:22,TEMP=26.3,BA=5.44,STAT.D=38.5,ExtBa=13.80
24/09/2022,13:12:16,TEMP=26.7,BA=5.44,STAT.F,ExtBa=13.73
24/09/2022,13:26:57,TEMP=26.1,BA=5.36,STAT.D=38.5,ExtBa=13.48
24/09/2022,13:30:22,TEMP=26.0,BA=5.44,STAT.D=38.5,ExtBa=13.71
24/09/2022,13:35:22,TEMP=25.9,BA=5.44,STAT.D=38.5,ExtBa=13.74
24/09/2022,13:40:05,TEMP=26.0,BA=5.40,STAT.B=38.5,ExtBa=13.74
24/09/2022,13:50:21,TEMP=26.2,BA=5.40,STAT.D=38.5,ExtBa=13.46
24/09/2022,13:55:21,TEMP=26.1,BA=5.40,STAT.D=38.5,ExtBa=13.67
24/09/2022,13:57:15,TEMP=26.4,BA=5.40,STAT.A=38.0,ExtBa=13.64
24/09/2022,14:00:21,TEMP=26.3,BA=5.44,STAT.D=38.0,ExtBa=13.62
24/09/2022,14:05:21,TEMP=26.2,BA=5.44,STAT.D=38.5,ExtBa=13.63
24/09/2022,14:08:27,TEMP=26.3,BA=5.44,STAT.A=38.0,ExtBa=13.62
24/09/2022,14:15:21,TEMP=26.0,BA=5.40,STAT.D=38.5,ExtBa=13.64
24/09/2022,14:18:48,TEMP=26.0,BA=5.40,STAT.A=38.5,ExtBa=13.62
24/09/2022,14:25:21,TEMP=25.9,BA=5.40,STAT.D=38.5,ExtBa=13.62
24/09/2022,14:27:28,TEMP=26.2,BA=5.40,STAT.A=38.0,ExtBa=13.58
24/09/2022,14:30:21,TEMP=26.1,BA=5.44,STAT.D=38.0,ExtBa=13.55
24/09/2022,14:34:51,TEMP=25.8,BA=5.44,STAT.C=38.5,ExtBa=13.56
24/09/2022,14:49:39,TEMP=25.2,BA=5.36,STAT.A=38.5,ExtBa=13.09
24/09/2022,14:51:42,TEMP=25.3,BA=5.36,STAT.A=38.5,ExtBa=13.08
24/09/2022,14:53:51,TEMP=25.2,BA=5.36,STAT.A=38.0,ExtBa=13.05
24/09/2022,14:56:03,TEMP=25.1,BA=5.36,STAT.A=38.0,ExtBa=13.07
24/09/2022,14:59:56,TEMP=24.8,BA=5.36,STAT.B=38.5,ExtBa=13.14
24/09/2022,15:09:52,TEMP=24.5,BA=5.36,STAT.A=38.5,ExtBa=13.00
24/09/2022,15:14:33,TEMP=24.4,BA=5.36,STAT.A=39.0,ExtBa=13.06
24/09/2022,15:19:48,TEMP=24.3,BA=5.36,STAT.A=39.0,ExtBa=13.05
24/09/2022,15:24:10,TEMP=24.2,BA=5.36,STAT.A=38.5,ExtBa=12.97
24/09/2022,15:27:50,TEMP=24.1,BA=5.36,STAT.A=38.5,ExtBa=12.95
24/09/2022,15:30:21,TEMP=24.2,BA=5.36,STAT.D=38.5,ExtBa=12.93
24/09/2022,15:32:16,TEMP=24.2,BA=5.36,STAT.A=38.0,ExtBa=12.92